Location: Bush Observatory
(40.2653°N, 94.3194°W)
Time: 15:49:35
(UTC-05:00)

Vanguard 1 - Visible Passes

Search period start: 29 March 2015 00:00
Search period end: 08 April 2015 00:00
Orbit: 653 x 3833 km, 34.2° (Epoch: 27 March)

Date Brightness Start Highest point End Pass type
(mag) Time Alt. Az. Time Alt. Az. Time Alt. Az.
29 Mar 12.6 21:46:52 10° WSW 21:53:43 23° SSW 22:00:16 16° SSE visible
30 Mar 12.9 22:09:21 10° WSW 22:15:21 17° SSW 22:20:37 13° S visible
31 Mar 12.0 20:09:14 10° WSW 20:14:55 29° SSW 20:23:46 10° SE visible
31 Mar 13.2 22:33:28 10° SW 22:37:03 12° SSW 22:40:28 10° SSW visible
01 Apr 12.3 20:30:59 10° WSW 20:36:22 22° SSW 20:44:09 10° SSE visible
02 Apr 12.7 20:53:13 10° WSW 20:57:53 17° SSW 21:03:49 10° S visible
03 Apr 13.0 21:17:03 10° SW 21:19:27 11° SSW 21:21:44 10° SSW visible
